Voltar ao catálogo

COSMOS 1651

GLONASS

AtivoNavegaçãoMEO
NORAD 15698·PAYLOAD·🇷🇺 Russia

Lançado May 17, 1985 de Baikonur Cosmodrome

Loading…

Próximas Passagens (próximas 24 horas)

TLE

AtualizadoSource: Space-Track

Época: Sep 8, 2026, 09:12 UTC

1 15698U 85037B   26251.38335932  .00000034  00000-0  00000-0 0  9991
2 15698  64.9325  69.9904 0015198  28.2156 345.1179  2.13123300321567

Acompanhe COSMOS 1651 em tempo real com AllMySat

Download on the App Store